EN

Hourly Weather Almarza

Today, 20 January, Wednesday

Time Temperature Precipitation Wind Pressure Humidity
00:00 0°C° 0 mm 3 mps 682 mmHg 86%
01:00 0°C° 0 mm 3 mps 682 mmHg 87%
02:00 0°C° 0 mm 3 mps 681 mmHg 87%
03:00 0°C° 0 mm 3 mps 680 mmHg 88%
04:00 0°C° 0 mm 3 mps 680 mmHg 88%
05:00 -1°C° 0 mm 4 mps 680 mmHg 89%
06:00 -1°C° 0 mm 4 mps 679 mmHg 89%
07:00 0°C° 0.1 mm 4 mps 679 mmHg 89%
08:00 0°C° 0.1 mm 5 mps 679 mmHg 89%
09:00 +1°C° 0.1 mm 5 mps 678 mmHg 90%
10:00 +2°C° 0 mm 5 mps 678 mmHg 88%
11:00 +3°C° 0 mm 6 mps 678 mmHg 87%
12:00 +4°C° 0 mm 6 mps 677 mmHg 86%
13:00 +4°C° 0 mm 6 mps 677 mmHg 86%
14:00 +6°C° 0 mm 5 mps 676 mmHg 85%
15:00 +6°C° 0 mm 5 mps 676 mmHg 85%
16:00 +5°C° 0.1 mm 4 mps 676 mmHg 87%
17:00 +5°C° 0.1 mm 4 mps 676 mmHg 90%
18:00 +4°C° 0.1 mm 3 mps 676 mmHg 92%
19:00 +4°C° 0.5 mm 4 mps 676 mmHg 92%
20:00 +4°C° 0.5 mm 4 mps 676 mmHg 92%
21:00 +4°C° 0.5 mm 4 mps 676 mmHg 93%
22:00 +4°C° 0.1 mm 4 mps 677 mmHg 93%
23:00 +4°C° 0.1 mm 3 mps 677 mmHg 93%

Tomorrow, 21 January, Thursday

Time Temperature Precipitation Wind Pressure Humidity
00:00 +4°C° 0.1 mm 3 mps 678 mmHg 93%
01:00 +4°C° 0 mm 3 mps 678 mmHg 93%
02:00 +4°C° 0 mm 3 mps 678 mmHg 94%
03:00 +3°C° 0 mm 3 mps 678 mmHg 94%
04:00 +3°C° 0 mm 3 mps 678 mmHg 94%
05:00 +3°C° 0 mm 3 mps 679 mmHg 94%
06:00 +3°C° 0 mm 3 mps 679 mmHg 93%
07:00 +4°C° 0 mm 4 mps 679 mmHg 93%
08:00 +4°C° 0 mm 4 mps 679 mmHg 92%
09:00 +4°C° 0 mm 4 mps 679 mmHg 91%
10:00 +5°C° 0 mm 5 mps 679 mmHg 90%
11:00 +4°C° 0 mm 6 mps 679 mmHg 88%
12:00 +5°C° 0 mm 7 mps 679 mmHg 86%
13:00 +5°C° 0.2 mm 6 mps 678 mmHg 86%
14:00 +5°C° 0.2 mm 6 mps 677 mmHg 87%
15:00 +6°C° 0.2 mm 5 mps 677 mmHg 87%
16:00 +6°C° 1 mm 5 mps 677 mmHg 89%
17:00 +6°C° 1 mm 5 mps 677 mmHg 91%
18:00 +6°C° 1 mm 4 mps 677 mmHg 93%
19:00 +5°C° 0.1 mm 5 mps 677 mmHg 90%
20:00 +5°C° 0.1 mm 5 mps 677 mmHg 88%
21:00 +4°C° 0.1 mm 6 mps 677 mmHg 86%
22:00 +4°C° 0 mm 6 mps 677 mmHg 86%
23:00 +4°C° 0 mm 6 mps 677 mmHg 86%

Day after tomorrow, 22 January, Friday

Time Temperature Precipitation Wind Pressure Humidity
00:00 +4°C° 0 mm 6 mps 677 mmHg 87%
01:00 +4°C° 0.1 mm 6 mps 676 mmHg 87%
02:00 +4°C° 0.1 mm 6 mps 675 mmHg 88%
03:00 +4°C° 0.1 mm 6 mps 674 mmHg 89%
04:00 +4°C° 1.9 mm 6 mps 673 mmHg 89%
05:00 +4°C° 1.9 mm 6 mps 673 mmHg 89%
06:00 +4°C° 1.9 mm 7 mps 672 mmHg 90%
07:00 +2°C° 0.6 mm 8 mps 672 mmHg 87%
08:00 +2°C° 0.6 mm 10 mps 672 mmHg 84%
09:00 0°C° 0.6 mm 12 mps 673 mmHg 82%
10:00 0°C° 0.2 mm 12 mps 673 mmHg 81%
11:00 +2°C° 0.2 mm 12 mps 673 mmHg 79%
12:00 +2°C° 0.2 mm 12 mps 673 mmHg 78%
13:00 +2°C° 0.8 mm 11 mps 674 mmHg 81%
14:00 +2°C° 0.8 mm 9 mps 674 mmHg 83%
15:00 +1°C° 0.8 mm 8 mps 674 mmHg 86%
16:00 +2°C° 0.5 mm 6 mps 675 mmHg 88%
17:00 +1°C° 0.5 mm 5 mps 676 mmHg 90%
18:00 +1°C° 0.5 mm 4 mps 677 mmHg 92%
19:00 +2°C° 0.3 mm 3 mps 678 mmHg 93%
20:00 +1°C° 0.3 mm 3 mps 678 mmHg 94%
21:00 +1°C° 0.3 mm 3 mps 679 mmHg 94%
22:00 0°C° 0 mm 3 mps 679 mmHg 91%
23:00 -1°C° 0 mm 4 mps 679 mmHg 87%

23 January, Saturday

Time Temperature Precipitation Wind Pressure Humidity
00:00 -1°C° 0 mm 4 mps 679 mmHg 83%
01:00 -1°C° 0.1 mm 5 mps 679 mmHg 85%
02:00 -1°C° 0.1 mm 6 mps 679 mmHg 86%
03:00 -1°C° 0.1 mm 6 mps 679 mmHg 87%
04:00 -1°C° 0.5 mm 6 mps 679 mmHg 89%
05:00 -1°C° 0.5 mm 6 mps 679 mmHg 90%
06:00 -1°C° 0.5 mm 6 mps 679 mmHg 91%
07:00 +1°C° 0.5 mm 5 mps 679 mmHg 90%
08:00 +1°C° 0.5 mm 5 mps 679 mmHg 89%
09:00 +1°C° 0.5 mm 4 mps 679 mmHg 88%
10:00 +2°C° 0.3 mm 5 mps 679 mmHg 87%
11:00 +2°C° 0.3 mm 6 mps 679 mmHg 86%
12:00 +2°C° 0.3 mm 6 mps 679 mmHg 86%
13:00 +2°C° 0.5 mm 6 mps 679 mmHg 87%
14:00 +2°C° 0.5 mm 5 mps 678 mmHg 88%
15:00 +3°C° 0.5 mm 4 mps 677 mmHg 89%
16:00 +3°C° 1.5 mm 4 mps 676 mmHg 91%
17:00 +3°C° 1.5 mm 4 mps 675 mmHg 93%
18:00 +3°C° 1.5 mm 3 mps 675 mmHg 95%
19:00 +3°C° 1.3 mm 4 mps 674 mmHg 94%
20:00 +4°C° 1.3 mm 4 mps 674 mmHg 94%
21:00 +4°C° 1.3 mm 4 mps 674 mmHg 93%
22:00 +4°C° 0.3 mm 4 mps 674 mmHg 93%
23:00 +3°C° 0.3 mm 5 mps 674 mmHg 93%

24 January, Sunday

Time Temperature Precipitation Wind Pressure Humidity
00:00 +3°C° 0.3 mm 5 mps 675 mmHg 93%
01:00 +2°C° 1.7 mm 5 mps 675 mmHg 94%
02:00 +1°C° 1.7 mm 5 mps 676 mmHg 94%
03:00 +1°C° 1.7 mm 4 mps 676 mmHg 95%
04:00 0°C° 0.6 mm 4 mps 677 mmHg 94%
05:00 +1°C° 0.6 mm 3 mps 678 mmHg 94%
06:00 0°C° 0.6 mm 3 mps 678 mmHg 93%
07:00 0°C° 0 mm 3 mps 679 mmHg 91%
08:00 0°C° 0 mm 3 mps 680 mmHg 89%
09:00 +1°C° 0 mm 2 mps 680 mmHg 86%
10:00 +2°C° 0 mm 3 mps 681 mmHg 83%
11:00 +3°C° 0 mm 4 mps 681 mmHg 80%
12:00 +4°C° 0 mm 4 mps 682 mmHg 78%
13:00 +4°C° 0 mm 4 mps 681 mmHg 77%
14:00 +4°C° 0 mm 4 mps 681 mmHg 77%
15:00 +4°C° 0 mm 4 mps 681 mmHg 77%
16:00 +3°C° 0 mm 4 mps 681 mmHg 79%
17:00 +2°C° 0 mm 3 mps 681 mmHg 82%
18:00 +1°C° 0 mm 3 mps 681 mmHg 84%
19:00 +1°C° 0 mm 3 mps 681 mmHg 85%
20:00 +1°C° 0 mm 3 mps 681 mmHg 85%
21:00 +1°C° 0 mm 3 mps 681 mmHg 85%
22:00 +1°C° 0 mm 3 mps 682 mmHg 87%
23:00 +3°C° 0 mm 2 mps 682 mmHg 89%

25 January, Monday

Time Temperature Precipitation Wind Pressure Humidity
00:00 +3°C° 0 mm 2 mps 682 mmHg 90%
01:00 +3°C° 0 mm 2 mps 682 mmHg 91%
02:00 +3°C° 0 mm 2 mps 682 mmHg 92%
03:00 +3°C° 0 mm 2 mps 683 mmHg 93%
04:00 +4°C° 0 mm 1 mps 683 mmHg 94%
05:00 +4°C° 0 mm 1 mps 683 mmHg 95%
06:00 +4°C° 0 mm 1 mps 683 mmHg 95%
07:00 +4°C° 0 mm 1 mps 683 mmHg 95%
08:00 +3°C° 0 mm 2 mps 684 mmHg 94%
09:00 +4°C° 0 mm 2 mps 684 mmHg 93%
10:00 +4°C° 0 mm 2 mps 685 mmHg 91%
11:00 +5°C° 0 mm 2 mps 685 mmHg 89%
12:00 +5°C° 0 mm 2 mps 685 mmHg 86%
13:00 +5°C° 0 mm 2 mps 685 mmHg 84%
14:00 +6°C° 0 mm 2 mps 685 mmHg 82%
15:00 +5°C° 0 mm 3 mps 685 mmHg 80%
16:00 +5°C° 0 mm 2 mps 685 mmHg 84%
17:00 +4°C° 0 mm 2 mps 685 mmHg 87%
18:00 +3°C° 0 mm 1 mps 685 mmHg 90%
19:00 +3°C° 0 mm 1 mps 686 mmHg 89%
20:00 +3°C° 0 mm 1 mps 686 mmHg 88%
21:00 +2°C° 0 mm 2 mps 686 mmHg 87%
22:00 +2°C° 0 mm 2 mps 686 mmHg 87%
23:00 +2°C° 0 mm 2 mps 687 mmHg 88%
Show more